Regional Weather Roundup
Issued by NWS

Home | Current Version | Previous Version | Graphics & Text | Print | Product List | Glossary On
Versions: 1 2 3 4 5 6 7 8 9 10 11 12 13 14 15 16 17 18 19 20 21 22 23 24 25 26 27 28 29 30 31 32 33 34 35 36 37 38 39 40 41 42 43 44 45 46 47 48 49 50
000
ASUS43 KFSD 020610
RWRSD

WEATHER ROUNDUP FOR SOUTH DAKOTA
NATIONAL WEATHER SERVICE SIOUX FALLS SD
100 AM CDT THU JUL 02 2015

NOTE: "FAIR" INDICATES FEW OR NO CLOUDS BELOW 12,000 FEET WITH NO
SIGNIFICANT WEATHER AND/OR OBSTRUCTIONS TO VISIBILITY.


SDZ001>005-009-010-012>017-020700-
NORTHWEST AND NORTH CENTRAL SOUTH DAKOTA

CITY           SKY/WX    TMP DP  RH WIND       PRES   REMARKS
BUFFALO          N/A     64  62  93 NE8       29.97S
FAITH            N/A     67  61  81 E3        29.99F
MOBRIDGE       CLOUDY    70  68  93 E7        29.94S
$$

SDZ012>016-024>037-041>051-057-063-072>074-020700-
SOUTHWEST AND SOUTH CENTRAL SOUTH DAKOTA

CITY           SKY/WX    TMP DP  RH WIND       PRES   REMARKS
RAPID CTY ARPT TSTM      64  61  90 E15       29.99F FOG
PIERRE         CLOUDY    68  66  93 E7        29.92F
CUSTER         CLOUDY    58  53  84 CALM      30.15F
ELLSWORTH AFB  TSTM      65  62  89 E7G21     29.98  FOG
PHILIP         CLOUDY    68  65  90 W6        29.99R
PINE RIDGE     TSTM      67  64  90 N12       30.06R FOG
SPEARFISH      FAIR      59  59 100 S9        30.08F
WINNER         FAIR      69  64  84 SE8       29.94F
$$

SDZ004>011-016>023-039-040-020700-
NORTHEAST SOUTH DAKOTA

CITY           SKY/WX    TMP DP  RH WIND       PRES   REMARKS
ABERDEEN       PTCLDY    63  58  83 SE7       29.97F
WATERTOWN      CLOUDY    61  53  75 SE6       29.99F
BROOKINGS      CLEAR     61  54  77 SE6       30.03R
SISSETON         N/A     58  55  90 SE3       29.98F
$$

SDZ017-020-022-023-036>040-048>070-020700-
SOUTHEAST SOUTH DAKOTA

CITY           SKY/WX    TMP DP  RH WIND       PRES   REMARKS
SIOUX FALLS    CLEAR     61  56  83 E7        29.99S
HURON          PTCLDY    63  59  87 SE10      29.95F
MITCHELL       PTCLDY    65  62  90 E8        29.97S
YANKTON        MOCLDY    64  61  88 E8        29.96R
$$

ABBREVIATIONS USED IN REMARKS
   TC - TEMPERATURE IN CELSIUS
  WCI - WIND CHILL INDEX
   HX - HEAT INDEX
  VSB - VISIBILITY



USA.gov is the U.S. government's official web portal to all federal, state and local government web resources and services.